Location: Bruderhein
(53.8035°N, 112.9265°W)
Time: 16:17:51
(UTC+00:00)

RS-15 - Pass Details

Date: 09 April 2023
Orbit: 1885 x 2159 km, 64.8° (Epoch: 01 June)

Event Time Altitude Azimuth Distance (km) Brightness Sun altitude
Rises 09:08:37 0° 317° (NW) 5,599 10.7 -25.4°
Reaches altitude 10° 09:15:20 10° 291° (WNW) 4,529 9.9 -25.0°
Maximum altitude 09:18:58 12° 273° (W) 4,323 9.6 -24.7°
Enters shadow 09:21:08 11° 261° (W) 4,360 9.5 -24.6°
